Location: Unspecified
(43.4354°N, 0.0000°E)
Time: 23:47:16
(UTC+00:00)

Altair - All Passes

Search period start: 20 June 2019 00:00
Search period end: 30 June 2019 00:00
Orbit: 1501 x 1683 km, 47.2° (Epoch: 19 June)

Date Brightness Start Highest point End Pass type
(mag) Time Alt. Az. Time Alt. Az. Time Alt. Az.
20 Jun - 01:57:04 10° WNW 02:07:04 74° SSW 02:17:11 10° SE visible
20 Jun - 04:02:44 10° WNW 04:10:49 28° SW 04:18:56 10° S daylight
20 Jun - 17:20:51 10° SE 17:24:00 12° ESE 17:27:10 10° E daylight
20 Jun - 19:17:53 10° SSW 19:26:45 47° SE 19:35:59 10° ENE daylight
20 Jun - 21:21:27 10° WSW 21:31:08 85° NNW 21:41:12 10° ENE visible
20 Jun - 23:26:47 10° W 23:36:38 72° N 23:46:47 10° E visible
21 Jun - 01:31:52 10° WNW 01:41:51 77° SSW 01:52:01 10° SE visible
21 Jun - 03:37:22 10° WNW 03:45:44 31° SW 03:54:09 10° S visible
21 Jun - 16:58:09 10° SE 16:59:01 10° ESE 16:59:54 10° ESE daylight
21 Jun - 18:52:57 10° SSW 19:01:40 44° SE 19:10:42 10° ENE daylight
21 Jun - 20:56:17 10° WSW 21:05:55 87° NNW 21:15:58 10° ENE visible
21 Jun - 23:01:34 10° W 23:11:22 72° N 23:21:30 10° E visible
22 Jun - 01:06:40 10° WNW 01:16:40 81° SSW 01:26:50 10° ESE visible
22 Jun - 03:12:02 10° WNW 03:20:39 34° SW 03:29:19 10° SSE visible
22 Jun - 18:28:03 10° SSW 18:36:35 41° SE 18:45:25 10° ENE daylight
22 Jun - 20:31:08 10° WSW 20:40:42 90° SSE 20:50:43 10° ENE visible
22 Jun - 22:36:21 10° W 22:46:07 71° N 22:56:13 10° E visible
23 Jun - 00:41:29 10° WNW 00:51:27 84° SSW 01:01:39 10° ESE visible
23 Jun - 02:46:44 10° WNW 02:55:33 36° SW 03:04:27 10° SSE visible
23 Jun - 18:03:11 10° SSW 18:11:30 37° SE 18:20:06 10° ENE daylight
23 Jun - 20:05:59 10° WSW 20:15:31 87° SSE 20:25:28 10° ENE visible
23 Jun - 22:11:08 10° W 22:20:51 71° N 22:30:56 10° E visible
24 Jun - 00:16:18 10° WNW 00:26:15 87° SSW 00:36:26 10° ESE visible
24 Jun - 02:21:27 10° WNW 02:30:26 39° SW 02:39:33 10° SSE visible
24 Jun - 17:38:21 10° SSW 17:46:27 34° SE 17:54:47 10° ENE daylight
24 Jun - 19:40:51 10° WSW 19:50:19 83° SSE 20:00:14 10° ENE daylight
24 Jun - 21:45:55 10° W 21:55:35 71° N 22:05:38 10° E visible
24 Jun - 23:51:07 10° WNW 00:01:02 90° E 00:11:13 10° ESE visible
25 Jun - 01:56:11 10° WNW 02:05:20 42° SW 02:14:37 10° SSE visible
25 Jun - 17:13:33 10° S 17:21:23 32° SE 17:29:28 10° ENE daylight
25 Jun - 19:15:43 10° WSW 19:25:09 80° SSE 19:35:00 10° ENE daylight
25 Jun - 21:20:42 10° W 21:30:20 72° N 21:40:21 10° E visible
25 Jun - 23:25:55 10° WNW 23:35:48 87° NNE 23:45:59 10° ESE visible
26 Jun - 01:30:56 10° WNW 01:40:12 46° SW 01:49:38 10° SSE visible
26 Jun - 03:40:04 10° WSW 03:43:07 12° WSW 03:46:10 10° SW visible
26 Jun - 16:48:48 10° S 16:56:21 29° SE 17:04:06 10° ENE daylight
26 Jun - 18:50:37 10° SW 18:59:59 76° SSE 19:09:46 10° ENE daylight
26 Jun - 20:55:29 10° W 21:05:05 72° N 21:15:04 10° E visible
26 Jun - 23:00:44 10° WNW 23:10:34 85° NNE 23:20:44 10° ESE visible
27 Jun - 01:05:42 10° WNW 01:15:05 49° SW 01:24:38 10° SSE visible
27 Jun - 03:13:49 10° W 03:18:06 13° WSW 03:22:23 10° SSW visible
27 Jun - 16:24:06 10° S 16:31:19 26° SE 16:38:43 10° ENE daylight
27 Jun - 18:25:32 10° SW 18:34:49 73° SSE 18:44:32 10° ENE daylight
27 Jun - 20:30:17 10° W 20:39:50 73° N 20:49:48 10° ENE visible
27 Jun - 22:35:32 10° WNW 22:45:20 82° NNE 22:55:29 10° ESE visible
28 Jun - 00:40:29 10° WNW 00:49:56 52° SW 00:59:37 10° SSE visible
28 Jun - 02:47:55 10° W 02:53:04 15° WSW 02:58:15 10° SSW visible
28 Jun - 15:59:26 10° S 16:06:17 24° SE 16:13:17 10° E daylight
28 Jun - 18:00:27 10° SW 18:09:41 69° SSE 18:19:18 10° ENE daylight
28 Jun - 20:05:04 10° W 20:14:35 74° N 20:24:32 10° ENE visible
28 Jun - 22:10:21 10° WNW 22:20:07 80° NNE 22:30:13 10° ESE visible
29 Jun - 00:15:16 10° WNW 00:24:48 56° SW 00:34:34 10° SE visible
29 Jun - 02:22:12 10° W 02:28:02 17° SW 02:33:56 10° SSW visible
29 Jun - 15:34:51 10° S 15:41:16 21° SE 15:47:49 10° E daylight
29 Jun - 17:35:24 10° SW 17:44:33 65° SSE 17:54:04 10° ENE daylight
29 Jun - 19:39:52 10° W 19:49:21 75° N 19:59:16 10° ENE daylight
29 Jun - 21:45:09 10° WNW 21:54:52 78° NNE 22:04:56 10° E visible
